Time,TemperatureF,DewpointF,PressureIn,WindDirection,WindDirectionDegrees,WindSpeedMPH,WindSpeedGustMPH,Humidity,HourlyPrecipIn,Conditions,Clouds,dailyrainin,SolarRadiationWatts/m^2,SoftwareType,DateUTC
2013-04-03 00:04:00,58.4,53.0,30.11,ESE,111,0.0,0.0,82,0.00,,,0.00,0,weatherlink.com 1.10,2013-04-03 04:04:00,
2013-04-03 00:19:00,57.9,54.0,30.10,ESE,111,0.0,0.0,87,0.00,,,0.00,0,weatherlink.com 1.10,2013-04-03 04:19:00,
2013-04-03 00:34:00,57.5,54.0,30.10,ESE,111,0.0,0.0,89,0.00,,,0.00,0,weatherlink.com 1.10,2013-04-03 04:34:00,
2013-04-03 00:49:00,56.5,53.0,30.10,ESE,111,0.0,0.0,87,0.00,,,0.00,0,weatherlink.com 1.10,2013-04-03 04:49:00,
2013-04-03 01:04:00,55.7,52.0,30.09,ESE,111,0.0,0.0,88,0.00,,,0.00,0,weatherlink.com 1.10,2013-04-03 05:04:00,
2013-04-03 01:19:00,55.3,53.0,30.09,ESE,111,0.0,0.0,90,0.00,,,0.00,0,weatherlink.com 1.10,2013-04-03 05:19:00,
2013-04-03 01:34:00,55.1,53.0,30.08,ESE,111,0.0,0.0,92,0.00,,,0.00,0,weatherlink.com 1.10,2013-04-03 05:34:00,
2013-04-03 01:50:00,54.5,52.0,30.07,ESE,111,0.0,0.0,91,0.00,,,0.00,0,weatherlink.com 1.10,2013-04-03 05:50:00,
2013-04-03 02:05:00,54.4,53.0,30.07,ESE,111,0.0,0.0,93,0.00,,,0.00,0,weatherlink.com 1.10,2013-04-03 06:05:00,
2013-04-03 02:20:00,53.7,52.0,30.08,ESE,111,0.0,0.0,92,0.00,,,0.00,0,weatherlink.com 1.10,2013-04-03 06:20:00,
2013-04-03 02:34:00,53.8,51.0,30.08,ESE,111,0.0,1.0,91,0.00,,,0.00,0,weatherlink.com 1.10,2013-04-03 06:34:00,
2013-04-03 02:50:00,53.6,51.0,30.08,ESE,111,0.0,0.0,91,0.00,,,0.00,0,weatherlink.com 1.10,2013-04-03 06:50:00,
2013-04-03 03:05:00,52.9,51.0,30.07,ESE,111,0.0,0.0,92,0.00,,,0.00,0,weatherlink.com 1.10,2013-04-03 07:05:00,
2013-04-03 03:20:00,52.5,51.0,30.06,ESE,111,0.0,0.0,93,0.00,,,0.00,0,weatherlink.com 1.10,2013-04-03 07:20:00,
2013-04-03 03:35:00,52.8,51.0,30.04,ESE,111,0.0,0.0,94,0.00,,,0.00,0,weatherlink.com 1.10,2013-04-03 07:35:00,
2013-04-03 03:50:00,53.4,52.0,30.04,ESE,111,0.0,0.0,95,0.00,,,0.00,0,weatherlink.com 1.10,2013-04-03 07:50:00,
2013-04-03 04:05:00,54.2,53.0,30.03,ESE,111,0.0,0.0,95,0.00,,,0.00,0,weatherlink.com 1.10,2013-04-03 08:05:00,
2013-04-03 04:20:00,55.2,54.0,30.04,ESE,105,0.0,0.0,96,0.00,,,0.00,0,weatherlink.com 1.10,2013-04-03 08:20:00,
2013-04-03 04:35:00,55.6,55.0,30.03,ESE,105,0.0,0.0,96,0.00,,,0.00,0,weatherlink.com 1.10,2013-04-03 08:35:00,
2013-04-03 04:50:00,55.8,54.0,30.03,ESE,105,0.0,1.0,95,0.00,,,0.00,0,weatherlink.com 1.10,2013-04-03 08:50:00,
2013-04-03 05:05:00,56.0,55.0,30.03,ESE,105,0.0,0.0,96,0.00,,,0.00,0,weatherlink.com 1.10,2013-04-03 09:05:00,
2013-04-03 05:21:00,56.5,55.0,30.04,ESE,105,0.0,1.0,96,0.00,,,0.00,0,weatherlink.com 1.10,2013-04-03 09:21:00,
2013-04-03 05:36:00,56.4,55.0,30.05,ESE,105,0.0,0.0,95,0.00,,,0.00,0,weatherlink.com 1.10,2013-04-03 09:36:00,
2013-04-03 05:51:00,56.1,55.0,30.05,ESE,105,0.0,0.0,95,0.00,,,0.00,0,weatherlink.com 1.10,2013-04-03 09:51:00,
2013-04-03 06:06:00,55.7,54.0,30.05,ESE,105,0.0,0.0,95,0.00,,,0.00,0,weatherlink.com 1.10,2013-04-03 10:06:00,
2013-04-03 06:21:00,55.9,55.0,30.05,ESE,105,0.0,0.0,96,0.00,,,0.00,0,weatherlink.com 1.10,2013-04-03 10:21:00,
2013-04-03 06:51:00,56.4,55.0,30.05,ESE,105,0.0,1.0,96,0.00,,,0.00,0,weatherlink.com 1.10,2013-04-03 10:51:00,
2013-04-03 07:06:00,56.9,56.0,30.04,East,100,1.0,2.0,96,0.00,,,0.00,0,weatherlink.com 1.10,2013-04-03 11:06:00,
2013-04-03 07:22:00,57.3,56.0,30.05,SE,126,1.0,1.0,96,0.00,,,0.00,12,weatherlink.com 1.10,2013-04-03 11:22:00,
2013-04-03 07:36:00,57.9,57.0,30.06,SE,126,0.0,1.0,96,0.00,,,0.00,39,weatherlink.com 1.10,2013-04-03 11:36:00,
2013-04-03 07:51:00,58.8,58.0,30.05,SE,126,0.0,1.0,96,0.00,,,0.00,76,weatherlink.com 1.10,2013-04-03 11:51:00,
2013-04-03 08:21:00,61.7,59.0,30.07,SSE,153,2.0,4.0,92,0.00,,,0.00,77,weatherlink.com 1.10,2013-04-03 12:21:00,
2013-04-03 08:36:00,63.6,60.0,30.07,ESE,116,1.0,4.0,89,0.00,,,0.00,227,weatherlink.com 1.10,2013-04-03 12:36:00,
2013-04-03 08:52:00,66.0,61.0,30.07,SSE,147,2.0,7.0,84,0.00,,,0.00,135,weatherlink.com 1.10,2013-04-03 12:52:00,
2013-04-03 09:07:00,68.2,61.0,30.07,SE,144,1.0,8.0,79,0.00,,,0.00,304,weatherlink.com 1.10,2013-04-03 13:07:00,
2013-04-03 09:22:00,70.0,62.0,30.07,ESE,109,1.0,7.0,76,0.00,,,0.00,399,weatherlink.com 1.10,2013-04-03 13:22:00,
2013-04-03 09:37:00,71.0,62.0,30.06,South,190,1.0,9.0,73,0.00,,,0.00,388,weatherlink.com 1.10,2013-04-03 13:37:00,
2013-04-03 09:52:00,71.5,62.0,30.06,ESE,111,5.0,10.0,72,0.00,,,0.00,323,weatherlink.com 1.10,2013-04-03 13:52:00,
2013-04-03 10:07:00,72.5,63.0,30.06,SE,138,4.0,10.0,71,0.00,,,0.00,466,weatherlink.com 1.10,2013-04-03 14:07:00,
2013-04-03 10:22:00,74.0,63.0,30.06,SSE,151,2.0,10.0,68,0.00,,,0.00,480,weatherlink.com 1.10,2013-04-03 14:22:00,
2013-04-03 10:37:00,74.6,63.0,30.06,SE,146,2.0,9.0,68,0.00,,,0.00,339,weatherlink.com 1.10,2013-04-03 14:37:00,
2013-04-03 10:52:00,74.9,63.0,30.07,ESE,102,3.0,10.0,67,0.00,,,0.00,325,weatherlink.com 1.10,2013-04-03 14:52:00,
2013-04-03 11:08:00,75.4,63.0,30.07,ENE,73,5.0,8.0,66,0.00,,,0.00,429,weatherlink.com 1.10,2013-04-03 15:08:00,
2013-04-03 11:22:00,76.7,63.0,30.06,ESE,110,2.0,11.0,63,0.00,,,0.00,766,weatherlink.com 1.10,2013-04-03 15:22:00,
2013-04-03 11:38:00,79.2,63.0,30.05,ESE,116,1.0,7.0,58,0.00,,,0.00,691,weatherlink.com 1.10,2013-04-03 15:38:00,
2013-04-03 11:54:00,80.1,62.0,30.04,ESE,110,3.0,11.0,55,0.00,,,0.00,371,weatherlink.com 1.10,2013-04-03 15:54:00,
2013-04-03 12:08:00,79.6,61.0,30.03,SE,130,5.0,14.0,54,0.00,,,0.00,689,weatherlink.com 1.10,2013-04-03 16:08:00,
2013-04-03 12:24:00,79.8,60.0,30.04,SE,130,8.0,10.0,51,0.00,,,0.00,485,weatherlink.com 1.10,2013-04-03 16:24:00,
2013-04-03 12:38:00,80.1,59.0,30.04,South,190,11.0,11.0,49,0.00,,,0.00,490,weatherlink.com 1.10,2013-04-03 16:38:00,
2013-04-03 12:54:00,80.9,60.0,30.03,SSE,150,4.0,7.0,50,0.00,,,0.00,450,weatherlink.com 1.10,2013-04-03 16:54:00,
2013-04-03 13:08:00,80.4,60.0,30.02,East,94,2.0,11.0,50,0.00,,,0.00,707,weatherlink.com 1.10,2013-04-03 17:08:00,
2013-04-03 13:38:00,80.3,62.0,30.02,SE,144,0.0,9.0,53,0.00,,,0.00,364,weatherlink.com 1.10,2013-04-03 17:38:00,
2013-04-03 13:54:00,79.7,62.0,30.01,SSE,159,0.0,9.0,54,0.00,,,0.00,330,weatherlink.com 1.10,2013-04-03 17:54:00,
2013-04-03 14:09:00,79.9,62.0,30.00,East,96,8.0,9.0,54,0.00,,,0.00,313,weatherlink.com 1.10,2013-04-03 18:09:00,
2013-04-03 14:24:00,80.5,62.0,30.00,SE,126,3.0,7.0,53,0.00,,,0.00,434,weatherlink.com 1.10,2013-04-03 18:24:00,
2013-04-03 14:54:00,79.9,61.0,30.01,SE,142,0.0,6.0,53,0.00,,,0.00,116,weatherlink.com 1.10,2013-04-03 18:54:00,
2013-04-03 15:09:00,79.4,61.0,30.01,East,88,2.0,5.0,54,0.00,,,0.00,81,weatherlink.com 1.10,2013-04-03 19:09:00,
2013-04-03 15:24:00,78.2,63.0,30.00,East,90,2.0,3.0,60,0.00,,,0.00,102,weatherlink.com 1.10,2013-04-03 19:24:00,
2013-04-03 15:39:00,76.9,64.0,29.99,NNE,29,1.0,3.0,65,0.00,,,0.00,229,weatherlink.com 1.10,2013-04-03 19:39:00,
2013-04-03 15:54:00,77.2,64.0,29.99,South,169,5.0,6.0,63,0.00,,,0.00,220,weatherlink.com 1.10,2013-04-03 19:54:00,
2013-04-03 16:09:00,74.3,64.0,29.99,East,101,2.0,9.0,70,0.00,,,0.00,169,weatherlink.com 1.10,2013-04-03 20:09:00,
2013-04-03 16:24:00,72.6,63.0,29.98,ENE,78,7.0,10.0,72,0.00,,,0.00,81,weatherlink.com 1.10,2013-04-03 20:24:00,
2013-04-03 16:39:00,71.5,64.0,29.98,ENE,66,1.0,6.0,77,0.00,,,0.00,69,weatherlink.com 1.10,2013-04-03 20:39:00,
2013-04-03 16:54:00,70.1,64.0,30.01,SSE,152,2.0,3.0,82,0.00,,,0.00,12,weatherlink.com 1.10,2013-04-03 20:54:00,
2013-04-03 17:09:00,68.3,65.0,30.03,West,275,1.0,6.0,88,0.15,,,0.15,26,weatherlink.com 1.10,2013-04-03 21:09:00,
2013-04-03 17:24:00,66.5,64.0,30.04,NNW,337,3.0,6.0,90,0.17,,,0.17,33,weatherlink.com 1.10,2013-04-03 21:24:00,
2013-04-03 17:40:00,66.3,64.0,30.04,NNE,17,1.0,3.0,91,0.18,,,0.18,26,weatherlink.com 1.10,2013-04-03 21:40:00,
2013-04-03 17:55:00,66.2,64.0,30.04,East,79,1.0,3.0,92,0.20,,,0.20,21,weatherlink.com 1.10,2013-04-03 21:55:00,
2013-04-03 18:09:00,65.8,64.0,30.04,NE,43,2.0,4.0,93,0.04,,,0.20,21,weatherlink.com 1.10,2013-04-03 22:09:00,
2013-04-03 18:25:00,65.3,64.0,30.03,ENE,63,3.0,6.0,94,0.05,,,0.22,26,weatherlink.com 1.10,2013-04-03 22:25:00,
2013-04-03 18:40:00,65.3,64.0,30.02,NE,34,1.0,6.0,94,0.04,,,0.22,23,weatherlink.com 1.10,2013-04-03 22:40:00,
2013-04-03 18:55:00,65.0,64.0,30.02,East,101,2.0,8.0,95,0.02,,,0.22,12,weatherlink.com 1.10,2013-04-03 22:55:00,
2013-04-03 19:10:00,64.3,62.0,30.02,ESE,107,2.0,6.0,93,0.01,,,0.22,9,weatherlink.com 1.10,2013-04-03 23:10:00,
2013-04-03 19:25:00,64.2,62.0,30.03,East,90,2.0,5.0,93,0.00,,,0.22,0,weatherlink.com 1.10,2013-04-03 23:25:00,
2013-04-03 19:40:00,64.2,62.0,30.02,East,91,5.0,8.0,93,0.00,,,0.22,0,weatherlink.com 1.10,2013-04-03 23:40:00,
2013-04-03 19:55:00,64.0,62.0,30.03,ENE,70,2.0,9.0,93,0.00,,,0.22,0,weatherlink.com 1.10,2013-04-03 23:55:00,
2013-04-03 20:10:00,64.2,62.0,30.04,ENE,72,3.0,10.0,93,0.02,,,0.24,0,weatherlink.com 1.10,2013-04-04 00:10:00,
2013-04-03 20:25:00,64.2,63.0,30.05,ENE,62,1.0,5.0,94,0.07,,,0.29,0,weatherlink.com 1.10,2013-04-04 00:25:00,
2013-04-03 20:40:00,64.0,62.0,30.04,NE,34,1.0,6.0,94,0.07,,,0.29,0,weatherlink.com 1.10,2013-04-04 00:40:00,
2013-04-03 20:55:00,63.7,62.0,30.04,ENE,69,2.0,8.0,94,0.07,,,0.29,0,weatherlink.com 1.10,2013-04-04 00:55:00,
2013-04-03 21:10:00,63.6,62.0,30.05,North,5,4.0,8.0,95,0.05,,,0.29,0,weatherlink.com 1.10,2013-04-04 01:10:00,
2013-04-03 21:25:00,63.5,62.0,30.06,ENE,71,4.0,9.0,95,0.00,,,0.29,0,weatherlink.com 1.10,2013-04-04 01:25:00,
2013-04-03 21:40:00,63.6,62.0,30.07,North,5,1.0,8.0,95,0.00,,,0.29,0,weatherlink.com 1.10,2013-04-04 01:40:00,
2013-04-03 21:55:00,63.8,62.0,30.07,NNE,17,2.0,7.0,95,0.01,,,0.30,0,weatherlink.com 1.10,2013-04-04 01:55:00,
2013-04-03 22:10:00,64.1,63.0,30.08,East,88,1.0,6.0,95,0.03,,,0.32,0,weatherlink.com 1.10,2013-04-04 02:10:00,
2013-04-03 22:25:00,64.1,63.0,30.08,SE,135,0.0,8.0,96,0.12,,,0.41,0,weatherlink.com 1.10,2013-04-04 02:25:00,
2013-04-03 22:40:00,64.2,63.0,30.09,ENE,58,0.0,7.0,96,0.14,,,0.43,0,weatherlink.com 1.10,2013-04-04 02:40:00,
2013-04-03 22:56:00,64.2,63.0,30.09,ESE,121,1.0,4.0,96,0.16,,,0.46,0,weatherlink.com 1.10,2013-04-04 02:56:00,
2013-04-03 23:10:00,64.1,63.0,30.07,ESE,109,2.0,7.0,96,0.15,,,0.47,0,weatherlink.com 1.10,2013-04-04 03:10:00,
2013-04-03 23:26:00,64.1,63.0,30.05,ENE,75,7.0,8.0,96,0.07,,,0.49,0,weatherlink.com 1.10,2013-04-04 03:26:00,
2013-04-03 23:41:00,63.9,63.0,30.04,ESE,103,3.0,11.0,96,0.05,,,0.49,0,weatherlink.com 1.10,2013-04-04 03:41:00,
2013-04-03 23:56:00,63.8,63.0,30.02,ENE,71,10.0,11.0,96,0.03,,,0.49,0,weatherlink.com 1.10,2013-04-04 03:56:00,